User: anonymous   Login
Location: Unspecified
(0.0000°N, 0.0000°E)
Time: 11:33:34
(UTC+00:00)
Language:

Oscar 19 - Orbit

View from above orbital plane
View from above orbital plane
View from above satellite
View from above satellite

Ground track
Ground track

The orbit data is extracted from the following two-line orbital elements,

1 20442U 90005G   17328.40397209  .00000032  00000-0  27705-4 0  9991
2 20442  98.5898 263.3783 0012518  38.9694 321.2390 14.32878987454560
Epoch (UTC): 24 November 2017 09:41:43
Eccentricity: 0.0012518
inclination: 98.5898°
perigee height: 773 km
apogee height: 791 km
right ascension of ascending node: 263.3783°
argument of perigee: 38.9694°
revolutions per day: 14.32878987
mean anomaly at epoch: 321.2390°
orbit number at epoch: 45456

The dashed part of the orbit path shows where the satellite is in the earth's shadow,  

DLR